User: anonymous   Login
Location: Theydon Bois
(51.6750°N, 0.1050°E)
Time: 04:32:56
(UTC+00:00)
Language:

BREEZE M DEB (TANK) - Orbit

View from above orbital plane
View from above orbital plane
View from above satellite
View from above satellite

Ground track
Ground track

The orbit data is extracted from the following two-line orbital elements,

1 33454U 08063B   18020.34661418 +.00000083 +00000-0 +64697-4 0  9997
2 33454 049.4350 132.8041 5408725 178.6578 183.9308 04.90470997160916
Epoch (UTC): 20 January 2018 08:19:07
Eccentricity: 0.5408725
inclination: 49.4350°
perigee height: 340 km
apogee height: 16169 km
right ascension of ascending node: 132.8041°
argument of perigee: 178.6578°
revolutions per day: 4.90470997
mean anomaly at epoch: 183.9308°
orbit number at epoch: 16091

The dashed part of the orbit path shows where the satellite is in the earth's shadow,  

DLR